Weather History for Glendive, MT

Change the Weather History Date:

Wednesday, October 17, 2012

  Actual Average Record
Temperature  
Mean Temperature 44 °F -  
Max Temperature 51 °F 54 °F 84 °F (2003)
Min Temperature 37 °F 31 °F 23 °F (1999)
Degree Days  
Heating Degree Days 21    
Moisture  
Dew Point 26 °F    
Average Humidity 51    
Maximum Humidity 93    
Minimum Humidity 28    
Precipitation  
Precipitation 0.08 in - - ()
Sea Level Pressure  
Sea Level Pressure 29.63 in    
Wind  
Wind Speed 31 mph (WNW)    
Max Wind Speed 43 mph    
Max Gust Speed 56 mph    
Visibility 10 miles    
Events      
Averages and records for this station are not official NWS values.
T = Trace of Precipitation, MM = Missing Value Source: NWS Daily Summary

Daily Weather History Graph

Daily Weather History Graph

Search for Another Location

Airport:

Trip Planner

Search our weather history database for the weather conditions in past years. The results will help you decide how hot, cold, wet, or windy it might be!

Date:

Astronomy

Oct. 17, 2012 Rise Set
Actual Time 7:21 AM MDT 6:07 PM MDT
Civil Twilight 6:50 AM MDT 6:37 PM MDT
Nautical Twilight 6:14 AM MDT 7:13 PM MDT
Astronomical Twilight 5:39 AM MDT 7:48 PM MDT
Moon 10:10 AM MDT (10/17) 7:32 PM MDT (10/17)
Length of Visible Light 11h 47m
Length of Day
10h 45m
Waxing Crescent, 7% of the Moon is Illuminated
Oct 17
Waxing Crescent
Oct 21
First Quarter
Oct 29
Full
Nov 6
Last Quarter
Nov 13
New

Hourly Weather History & Observations

Time (MDT) Temp. Windchill Dew Point Humidity Pressure Visibility Wind Dir Wind Speed Gust Speed Precip Events Conditions
12:15 AM 42.8 °F 31.8 °F 35.6 °F 76% 29.39 in 10.0 mi WNW 33.4 mph 47.2 mph N/A   Partly Cloudy
12:35 AM 39.2 °F 26.3 °F 33.8 °F 81% 29.39 in 10.0 mi West 36.8 mph 43.7 mph N/A   Partly Cloudy
12:55 AM 39.2 °F 26.3 °F 33.8 °F 81% 29.40 in 10.0 mi West 36.8 mph 51.8 mph N/A   Mostly Cloudy
1:15 AM 37.4 °F 24.2 °F 33.8 °F 87% 29.41 in 10.0 mi West 34.5 mph 46.0 mph N/A   Overcast
1:35 AM 37.4 °F 25.4 °F 35.6 °F 93% 29.41 in 7.0 mi West 27.6 mph 35.7 mph 0.02 in   Overcast
1:55 AM 42.8 °F 31.9 °F 37.4 °F 81% 29.42 in 8.0 mi WNW 32.2 mph 49.5 mph 0.05 in   Overcast
2:15 AM 42.8 °F 32.5 °F 37.4 °F 81% 29.43 in 9.0 mi WNW 28.8 mph 40.3 mph 0.01 in   Overcast
2:35 AM 42.8 °F 31.1 °F 37.4 °F 81% 29.44 in 6.0 mi NW 38.0 mph 56.4 mph 0.03 in   Overcast
2:55 AM 42.8 °F 33.3 °F 37.4 °F 81% 29.46 in 10.0 mi WNW 24.2 mph 39.1 mph 0.03 in   Mostly Cloudy
3:15 AM 42.8 °F 32.3 °F 37.4 °F 81% 29.46 in 10.0 mi WNW 29.9 mph 39.1 mph N/A   Partly Cloudy
3:35 AM 42.8 °F 32.3 °F 37.4 °F 81% 29.47 in 10.0 mi WNW 29.9 mph 41.4 mph N/A   Scattered Clouds
4:15 AM 42.8 °F 32.9 °F 35.6 °F 76% 29.50 in 10.0 mi WNW 26.5 mph 41.4 mph N/A   Clear
4:35 AM 42.8 °F 32.7 °F 33.8 °F 70% 29.52 in 10.0 mi West 27.6 mph 41.4 mph N/A   Partly Cloudy
4:55 AM 42.8 °F 33.1 °F 33.8 °F 70% 29.54 in 10.0 mi WNW 25.3 mph 36.8 mph N/A   Mostly Cloudy
5:15 AM 42.8 °F 33.5 °F 33.8 °F 70% 29.56 in 10.0 mi West 23.0 mph 33.4 mph N/A   Overcast
5:35 AM 42.8 °F 32.7 °F 30.2 °F 61% 29.57 in 10.0 mi WNW 27.6 mph 34.5 mph N/A   Scattered Clouds
5:55 AM 42.8 °F 33.1 °F 30.2 °F 61% 29.58 in 10.0 mi WNW 25.3 mph 36.8 mph N/A   Clear
6:15 AM 42.8 °F 33.3 °F 30.2 °F 61% 29.58 in 10.0 mi West 24.2 mph 34.5 mph N/A   Clear
6:35 AM 42.8 °F 33.1 °F 30.2 °F 61% 29.59 in 10.0 mi West 25.3 mph 35.7 mph N/A   Clear
6:55 AM 42.8 °F 32.5 °F 28.4 °F 57% 29.60 in 10.0 mi WNW 28.8 mph 33.4 mph N/A   Clear
7:15 AM 41.0 °F 30.7 °F 28.4 °F 61% 29.60 in 10.0 mi WNW 25.3 mph 33.4 mph N/A   Clear
7:35 AM 41.0 °F 30.5 °F 28.4 °F 61% 29.60 in 10.0 mi WNW 26.5 mph 33.4 mph N/A   Clear
7:55 AM 41.0 °F 31.1 °F 28.4 °F 61% 29.61 in 10.0 mi WNW 23.0 mph 33.4 mph N/A   Clear
8:15 AM 41.0 °F 30.7 °F 28.4 °F 61% 29.62 in 10.0 mi WNW 25.3 mph 34.5 mph N/A   Clear
8:35 AM 42.8 °F 33.1 °F 26.6 °F 53% 29.63 in 10.0 mi WNW 25.3 mph 34.5 mph N/A   Clear
8:55 AM 42.8 °F 32.9 °F 26.6 °F 53% 29.63 in 10.0 mi West 26.5 mph 35.7 mph N/A   Clear
9:15 AM 42.8 °F 33.1 °F 26.6 °F 53% 29.63 in 10.0 mi WNW 25.3 mph 34.5 mph N/A   Clear
9:35 AM 42.8 °F 33.1 °F 26.6 °F 53% 29.64 in 10.0 mi WNW 25.3 mph 38.0 mph N/A   Clear
9:55 AM 44.6 °F 35.7 °F 26.6 °F 49% 29.64 in 10.0 mi WNW 24.2 mph 41.4 mph N/A   Clear
10:15 AM 44.6 °F 34.2 °F 26.6 °F 49% 29.64 in 10.0 mi WNW 33.4 mph 42.6 mph N/A   Clear
10:35 AM 46.4 °F 36.7 °F 26.6 °F 46% 29.64 in 10.0 mi WNW 33.4 mph 41.4 mph N/A   Clear
11:15 AM 48.2 °F - 24.8 °F 40% 29.64 in 10.0 mi WNW 35.7 mph 47.2 mph N/A   Clear
11:35 AM 48.2 °F - 24.8 °F 40% 29.65 in 10.0 mi WNW 33.4 mph 43.7 mph N/A   Clear
11:55 AM 48.2 °F - 24.8 °F 40% 29.65 in 10.0 mi WNW 33.4 mph 42.6 mph N/A   Clear
12:15 PM 48.2 °F - 23.0 °F 37% 29.66 in 10.0 mi WNW 38.0 mph 47.2 mph N/A   Clear
12:35 PM 48.2 °F - 24.8 °F 40% 29.66 in 10.0 mi WNW 35.7 mph 47.2 mph N/A   Clear
12:55 PM 50.0 °F - 24.8 °F 37% 29.66 in 10.0 mi WNW 35.7 mph 46.0 mph N/A   Clear
1:35 PM 50.0 °F - 21.2 °F 32% 29.65 in 10.0 mi WNW 42.6 mph 52.9 mph N/A   Clear
1:55 PM 51.8 °F - 21.2 °F 30% 29.64 in 10.0 mi WNW 35.7 mph 51.8 mph N/A   Clear
2:15 PM 51.8 °F - 19.4 °F 28% 29.64 in 10.0 mi WNW 40.3 mph 56.4 mph N/A   Clear
2:35 PM 51.8 °F - 21.2 °F 30% 29.65 in 10.0 mi WNW 39.1 mph 54.1 mph N/A   Clear
2:55 PM 50.0 °F - 19.4 °F 30% 29.65 in 10.0 mi WNW 39.1 mph 52.9 mph N/A   Clear
3:15 PM 50.0 °F - 19.4 °F 30% 29.66 in 10.0 mi WNW 38.0 mph 55.2 mph N/A   Partly Cloudy
3:35 PM 51.8 °F - 19.4 °F 28% 29.67 in 10.0 mi WNW 35.7 mph 49.5 mph N/A   Partly Cloudy
3:55 PM 50.0 °F - 19.4 °F 30% 29.67 in 10.0 mi NW 42.6 mph 54.1 mph N/A   Partly Cloudy
4:15 PM 50.0 °F - 17.6 °F 28% 29.68 in 10.0 mi WNW 34.5 mph 50.6 mph N/A   Clear
4:35 PM 48.2 °F - 17.6 °F 30% 29.68 in 10.0 mi WNW 40.3 mph 54.1 mph N/A   Partly Cloudy
4:55 PM 50.0 °F - 19.4 °F 30% 29.69 in 10.0 mi WNW 34.5 mph 49.5 mph N/A   Mostly Cloudy
5:15 PM 48.2 °F - 19.4 °F 32% 29.69 in 10.0 mi WNW 29.9 mph 44.9 mph N/A   Mostly Cloudy
5:55 PM 48.2 °F - 19.4 °F 32% 29.71 in 10.0 mi WNW 40.3 mph 50.6 mph N/A   Mostly Cloudy
6:15 PM 46.4 °F 37.7 °F 21.2 °F 37% 29.73 in 10.0 mi NW 26.5 mph 43.7 mph N/A   Overcast
6:35 PM 44.6 °F 35.7 °F 21.2 °F 39% 29.74 in 10.0 mi NW 24.2 mph 35.7 mph N/A   Mostly Cloudy
6:55 PM 44.6 °F 35.3 °F 21.2 °F 39% 29.75 in 10.0 mi NW 26.5 mph 33.4 mph N/A   Scattered Clouds
7:15 PM 44.6 °F 35.1 °F 21.2 °F 39% 29.76 in 10.0 mi NW 27.6 mph 34.5 mph N/A   Mostly Cloudy
7:36 PM 44.6 °F 35.1 °F 21.2 °F 39% 29.77 in 10.0 mi NW 27.6 mph 35.7 mph N/A   Overcast
7:55 PM 44.6 °F 36.1 °F 21.2 °F 39% 29.77 in 10.0 mi NW 21.9 mph 32.2 mph N/A   Scattered Clouds
8:15 PM 42.8 °F 33.1 °F 21.2 °F 42% 29.77 in 10.0 mi NW 25.3 mph 32.2 mph N/A   Clear
8:35 PM 44.6 °F 34.4 °F 21.2 °F 39% 29.77 in 10.0 mi NW 32.2 mph 43.7 mph N/A   Clear
8:55 PM 44.6 °F 35.1 °F 23.0 °F 43% 29.78 in 10.0 mi NW 27.6 mph 42.6 mph N/A   Scattered Clouds
9:15 PM 44.6 °F 34.6 °F 21.2 °F 39% 29.79 in 10.0 mi NW 31.1 mph 44.9 mph N/A   Mostly Cloudy
9:35 PM 44.6 °F 34.6 °F 21.2 °F 39% 29.80 in 10.0 mi NW 31.1 mph 40.3 mph N/A   Overcast
9:55 PM 44.6 °F 34.4 °F 21.2 °F 39% 29.80 in 10.0 mi NW 32.2 mph 41.4 mph N/A   Overcast
10:35 PM 42.8 °F 31.6 °F 23.0 °F 46% 29.80 in 10.0 mi WNW 34.5 mph 42.6 mph N/A   Mostly Cloudy
10:55 PM 42.8 °F 32.3 °F 21.2 °F 42% 29.81 in 10.0 mi WNW 29.9 mph 41.4 mph N/A   Mostly Cloudy
11:15 PM 42.8 °F 32.7 °F 21.2 °F 42% 29.81 in 10.0 mi WNW 27.6 mph 40.3 mph N/A   Mostly Cloudy
11:35 PM 41.0 °F 30.0 °F 23.0 °F 49% 29.82 in 10.0 mi WNW 28.8 mph 38.0 mph N/A   Mostly Cloudy
11:55 PM 41.0 °F 29.8 °F 23.0 °F 49% 29.82 in 10.0 mi WNW 29.9 mph 39.1 mph N/A   Overcast